Tracking 23732 objects as of 28-Sep-2021
HD Live streaming from Space Station
objects crossing your sky now

GLOBALSTAR M078

Track GLOBALSTAR M078 now!
10-day predictions
GLOBALSTAR M078 is classified as:


NORAD ID: 39076
Int'l Code: 2013-005E
Perigee: 1,419.6 km
Apogee: 1,421.9 km
Inclination: 52.0 °
Period: 114.1 minutes
Semi major axis: 7791 km
RCS: 4.7444 m2 (large)
Launch date: February 6, 2013
Source: Globalstar (GLOB)
Launch site: TYURATAM MISSILE AND SPACE COMPLEX (TTMTR)

GLOBALSTAR M078 is part of Globalstar's second-generation satellite fleet, which began launching in 2010.
aabbcc
Your satellite tracking list
Your tracking list is empty




NASA's NSSDC Master Catalog

Two Line Element Set (TLE):
1 39076U 13005E   21270.92021329 -.00000157  00000-0 -29828-3 0  9991
2 39076  51.9863 131.4555 0001501  67.9647 292.1378 12.62264486398383
Source of the keplerian elements: AFSPC